User: anonymous   Login
Location: Unspecified
(48.7436°N, 0.0000°E)
Time: 09:42:41
(UTC+00:00)
Language:

OTV 5 (USA 277) - Orbit

View from above orbital plane
View from above orbital plane
View from above satellite
View from above satellite

Ground track
Ground track

The orbit data is extracted from the following two-line orbital elements,

1 42932U 17052A   19223.11735849 0.00000000  00000-0  00000-0 0    03
2 42932  54.5245 302.8326 0018292  59.0447 300.9552 15.84695248    08
Epoch (UTC): 11 August 2019 02:48:59
Eccentricity: 0.0018292
inclination: 54.5245°
perigee height: 305 km
apogee height: 329 km
right ascension of ascending node: 302.8326°
argument of perigee: 59.0447°
revolutions per day: 15.84695248
mean anomaly at epoch: 300.9552°
orbit number at epoch: 0

The dashed part of the orbit path shows where the satellite is in the earth's shadow,  

DLR